Theta_e
323 321 321 321 321 321 322 322 322 323 323 323 323 323 323 323 323 323 324 324 324 324 323 323 322 322 318 306 306 322 330 332 318 315 312 310 308 307 303 304 306 304 305 306 307 307 306
325 325 324 324 324 323 323 324 324 324 324 324 323 323 323 322 323 323 323 323 324 323 322 322 322 320 312 301 313 325 325 322 315 313 312 312 308 309 305 304 303 305 304 304 305 304 305
325 325 325 325 325 323 323 324 325 325 324 324 323 322 322 322 323 323 323 323 322 321 320 319 321 318 307 307 316 323 321 316 316 314 311 313 311 307 307 303 306 303 299 302 303 304 302
327 326 326 326 325 324 324 324 324 324 324 323 322 322 321 321 322 322 322 322 321 318 318 319 320 316 304 309 317 316 315 312 314 313 312 311 311 308 305 305 302 299 300 295 302 301 302
327 326 326 326 326 325 324 324 324 324 323 322 322 321 321 321 321 321 322 320 317 318 319 319 316 312 303 310 306 310 312 308 310 309 308 308 309 305 304 299 297 300 294 296 298 303 300
327 326 326 326 326 325 324 324 324 324 323 323 322 321 322 322 321 321 320 315 318 318 318 317 311 303 303 302 307 307 309 310 306 307 304 304 304 300 300 298 291 296 296 297 296 301 299
326 326 326 325 325 325 324 324 324 325 324 323 322 322 323 322 322 322 318 316 315 311 309 306 309 303 309 307 309 306 307 306 306 304 299 302 297 295 299 301 300 298 296 295 298 302 299
326 326 325 325 325 325 324 324 325 326 326 324 323 323 323 323 322 320 317 312 306 305 304 313 311 308 307 307 302 304 307 302 301 297 300 297 294 300 302 298 297 297 295 294 298 300 296
325 325 325 325 325 325 324 324 325 326 325 323 322 322 322 322 321 319 314 309 311 309 302 308 306 304 304 305 303 304 304 303 300 298 297 296 300 302 299 297 295 295 294 294 294 297 298
325 325 324 324 324 324 323 323 323 323 321 321 321 321 321 321 316 320 316 311 312 309 299 301 301 300 301 303 299 301 304 302 300 297 300 298 300 296 295 294 296 292 298 296 294 292 290
324 324 323 323 323 322 322 322 321 319 318 318 319 320 321 320 322 317 312 312 312 307 288 301 297 306 302 298 298 298 302 301 297 297 296 296 294 294 293 295 297 295 295 293 293 292 291
325 324 323 322 322 320 319 317 316 315 313 313 314 318 319 319 322 316 313 311 310 297 288 299 298 297 297 297 296 299 299 301 300 296 297 296 297 296 297 297 296 295 293 294 294 292 286
325 324 322 320 317 316 315 314 313 312 310 309 310 314 316 319 314 315 314 314 297 289 301 298 296 295 295 294 294 295 296 294 295 292 293 297 296 297 296 294 295 293 291 287 287 287 285
322 318 316 315 314 313 312 311 310 309 307 307 307 311 316 316 311 310 314 303 288 294 296 301 299 300 297 299 296 295 296 296 300 295 293 291 289 296 296 295 294 295 294 288 282 284 288
317 315 314 313 311 310 309 308 307 305 304 305 307 312 314 320 316 315 308 291 292 295 298 298 298 294 295 298 297 298 297 296 297 298 292 291 291 296 295 296 295 292 288 293 285 287 284
313 312 311 309 309 308 307 305 304 303 303 304 308 308 308 316 314 314 300 292 295 299 299 299 292 296 292 295 295 295 295 298 296 296 297 295 288 296 294 294 295 294 297 287 286 278 278
310 309 307 306 305 304 303 302 302 301 302 303 305 296 306 312 314 304 290 293 297 300 302 298 295 294 295 293 294 294 294 298 299 298 296 295 292 291 295 292 290 290 288 289 289 286 280
308 307 305 304 303 303 302 301 301 301 305 303 302 292 311 314 298 298 294 295 297 297 301 298 298 297 294 294 292 292 292 295 301 299 293 296 290 286 289 295 297 294 291 291 284 282 285
306 304 303 303 302 301 301 300 300 300 301 302 296 298 309 309 290 292 296 295 297 295 296 296 296 297 297 294 289 292 294 298 299 297 294 295 288 282 284 289 292 290 291 291 291 288 283
304 303 302 302 302 301 301 300 299 299 298 303 297 289 298 300 300 294 292 292 292 298 296 297 295 297 294 292 294 290 290 295 297 296 295 296 289 285 281 284 289 286 288 290 288 283 283
304 303 303 302 302 301 301 299 299 300 298 300 295 290 294 289 292 294 293 292 290 289 295 295 292 292 291 287 288 288 291 292 294 293 293 293 284 286 287 288 288 286 285 285 284 285 281
302 302 302 302 301 301 301 300 299 300 297 294 289 289 292 292 294 292 292 289 289 290 290 288 289 290 291 287 288 285 288 288 287 289 289 290 282 284 280 284 284 281 284 284 285 285 285
302 302 303 302 301 301 301 301 300 301 297 291 293 293 291 288 289 289 290 290 288 291 289 289 289 288 286 288 289 288 289 289 289 286 285 284 282 279 274 280 280 276 280 282 283 285 284
302 302 302 302 302 302 301 302 301 301 298 295 294 293 287 283 285 285 285 287 287 288 286 287 288 286 288 290 288 287 286 285 285 285 287 281 280 280 275 276 268 279 285 283 280 281 283
301 301 302 302 302 302 301 302 301 301 300 296 296 291 288 283 284 284 284 285 286 286 285 285 286 288 289 285 280 277 276 275 278 281 282 284 281 275 272 272 276 279 281 280 278 278 283
301 302 303 303 302 302 302 303 302 302 301 298 296 296 290 284 282 285 283 284 282 282 281 282 285 287 287 282 278 272 271 274 273 275 280 280 282 277 275 269 266 276 280 281 280 272 283
302 302 302 303 302 302 302 302 302 302 301 300 296 298 291 284 286 285 282 282 285 283 281 281 281 281 285 279 274 273 272 276 271 271 273 273 275 273 273 271 274 282 280 281 270 274 282
301 301 302 302 302 302 302 302 302 302 302 299 297 299 292 286 287 287 287 284 284 284 280 278 279 279 279 275 275 274 273 275 273 275 274 273 272 271 271 268 266 280 279 274 279 283 282
301 301 301 302 302 301 302 302 302 302 302 301 292 296 298 289 289 292 291 292 290 289 286 281 283 280 282 278 278 278 274 275 273 269 278 271 275 273 274 273 280 281 281 283 284 283 282
Wind_Speed
12 12 11 11 10 9 8 7 6 5 5 4 5 6 6 7 8 9 10 11 12 12 12 11 9 9 6 6 7 5 8 8 12 9 10 9 9 9 10 7 7 13 14 15 14 14 14
12 12 12 11 11 9 8 8 7 6 5 5 5 6 7 7 9 11 12 13 14 14 14 11 8 7 6 10 4 7 8 9 9 11 10 11 5 7 12 12 12 10 12 17 17 15 14
14 13 13 13 12 10 8 7 7 6 6 5 5 6 7 9 10 12 13 14 15 15 10 8 5 5 6 10 3 5 6 5 4 8 9 9 4 7 4 9 4 8 13 16 19 18 9
11 10 9 9 9 8 8 7 7 6 7 5 5 5 6 8 10 13 14 14 13 7 7 3 7 5 7 3 4 4 5 4 3 1 4 2 4 7 6 2 6 8 10 10 7 1 4
13 12 11 11 10 9 9 9 8 7 6 6 5 5 6 8 10 13 15 15 1 2 4 9 6 5 5 1 2 2 3 3 6 4 3 3 5 6 5 8 10 13 12 15 12 9 4
13 13 12 11 11 10 9 9 8 8 8 7 6 6 6 7 10 13 16 4 6 3 5 4 2 4 4 1 4 3 1 8 4 8 5 5 6 8 9 10 12 15 18 18 20 20 14
14 14 13 13 12 11 11 10 10 9 9 8 7 6 6 6 9 11 11 4 5 5 6 7 7 10 7 5 3 2 2 7 6 8 7 8 9 11 16 17 20 20 19 20 21 18 17
16 15 14 14 13 12 12 10 10 9 8 6 6 5 6 5 7 12 7 4 4 3 10 11 14 10 1 1 3 6 6 9 7 11 6 5 12 17 16 8 12 15 17 19 16 8 1
18 17 17 15 14 13 12 11 11 10 8 5 5 4 4 4 7 5 3 3 1 2 7 7 3 4 1 6 7 7 10 4 9 12 14 17 13 5 11 13 15 16 16 18 18 14 11
18 18 17 16 14 13 12 13 10 10 9 7 7 5 2 4 4 2 1 4 1 2 8 4 5 3 4 3 5 1 2 4 6 10 14 12 7 7 10 16 13 16 11 11 11 6 10
20 18 17 16 15 13 13 11 9 10 6 5 3 2 3 4 5 3 5 4 2 4 9 2 3 3 1 3 3 3 0 5 11 7 5 1 5 4 8 9 7 6 1 4 5 10 12
19 19 18 16 13 10 12 15 16 11 9 5 5 3 5 3 4 4 5 3 4 6 8 1 3 1 3 3 1 3 1 4 3 6 11 17 3 4 10 1 7 2 6 10 7 6 11
18 17 15 17 20 18 19 17 13 12 9 3 3 1 4 3 1 6 5 3 5 7 2 3 3 2 5 1 2 3 5 7 5 6 8 6 10 5 3 7 5 7 8 9 9 9 14
15 21 21 22 20 19 16 16 18 11 7 4 4 3 3 1 2 2 2 1 9 3 8 4 2 2 4 3 1 2 5 10 8 5 9 11 16 6 8 5 7 8 9 8 12 14 14
22 23 22 21 18 18 16 14 11 11 7 5 1 1 3 3 5 4 3 6 6 8 6 5 2 8 17 7 4 4 5 8 5 3 7 11 10 3 3 1 3 4 6 7 6 9 10
19 20 20 19 18 15 15 13 10 9 8 3 3 1 3 5 5 3 5 7 11 7 1 5 12 12 13 7 7 3 3 3 1 1 2 3 10 4 3 1 8 8 1 5 3 5 8
17 17 17 16 15 14 9 10 8 6 6 5 2 2 2 6 1 3 5 7 12 10 4 6 11 15 12 9 7 6 7 5 8 6 1 5 4 15 10 9 14 7 6 12 13 11 13
17 15 14 14 13 14 13 7 8 4 10 8 4 5 6 7 9 6 13 7 5 11 7 10 10 15 16 13 13 14 17 14 5 2 7 8 2 8 23 20 17 9 15 17 14 9 11
16 14 11 11 12 12 10 7 4 4 3 5 4 3 1 3 9 12 10 12 17 9 8 10 10 10 9 12 8 12 14 2 4 2 2 3 4 5 9 9 2 8 11 14 19 18 24
14 13 11 12 12 11 9 7 5 2 2 3 5 5 4 5 9 13 17 18 17 8 10 17 13 11 11 13 13 9 11 2 3 2 4 0 8 15 14 18 19 17 18 16 14 12 14
11 13 14 12 11 11 11 8 5 3 2 3 3 4 1 8 11 15 12 5 14 15 6 5 10 17 18 15 15 18 16 12 3 1 3 6 12 15 18 21 21 21 19 23 23 24 24
6 8 12 11 10 10 12 11 8 6 3 2 3 3 2 2 9 19 15 14 17 12 8 10 14 7 9 10 10 8 10 9 13 11 11 8 10 12 17 18 20 23 24 27 24 24 26
11 12 13 13 14 12 11 14 10 10 4 2 1 1 3 4 7 9 13 17 11 12 3 2 5 4 8 8 6 3 4 6 8 7 8 12 8 9 19 15 18 16 23 22 24 23 23
15 15 13 14 14 15 13 15 13 15 9 1 1 2 2 4 9 11 4 9 9 10 6 5 3 4 5 5 5 5 7 11 14 17 14 12 11 9 15 11 20 13 10 8 13 15 13
16 19 20 19 18 17 15 15 16 15 13 3 3 2 3 3 7 9 8 9 5 6 5 5 6 2 3 0 3 4 4 3 9 16 16 18 15 9 9 15 19 24 18 19 14 18 11
18 19 21 20 18 20 20 20 22 19 18 5 4 2 1 1 7 4 9 12 7 8 5 5 4 3 5 4 3 5 6 3 4 3 1 5 13 12 10 14 17 14 4 4 4 12 6
16 17 16 17 19 19 19 19 19 20 19 8 4 9 3 3 4 8 8 10 7 8 2 4 5 4 4 6 5 6 6 4 6 5 5 3 4 14 14 16 12 3 6 2 8 7 9
18 18 18 19 18 19 18 19 21 22 21 12 6 10 7 4 5 12 9 6 6 8 6 5 5 2 5 6 6 5 6 7 6 10 8 8 8 7 5 7 13 5 6 6 3 5 4
19 20 19 19 19 19 19 18 18 20 21 18 3 7 8 4 4 5 15 16 16 11 6 6 1 4 6 6 5 4 4 3 7 7 7 8 11 7 7 6 2 8 10 10 11 10 14
Wind_Direction
203 201 207 214 223 234 240 243 255 266 279 296 308 315 324 326 324 324 322 318 316 315 314 308 302 308 282 234 257 113 125 141 167 193 200 201 222 244 257 274 277 244 267 278 282 281 271
221 214 221 223 226 230 244 246 254 264 277 288 300 312 320 321 319 319 319 318 319 314 310 305 281 293 243 250 79 133 142 158 189 206 219 221 238 273 289 280 256 330 298 284 281 275 269
219 225 227 227 233 233 249 251 260 261 270 283 304 319 325 326 320 318 318 316 317 314 311 301 234 227 241 254 57 121 148 174 205 223 228 228 267 231 337 257 308 285 293 295 279 268 246
233 236 232 230 235 238 239 243 252 259 271 279 292 308 317 319 320 316 314 315 314 319 319 245 171 211 259 29 99 152 162 120 160 175 268 296 226 261 252 27 251 267 275 283 288 125 137
224 228 227 230 235 233 235 236 236 244 255 269 281 291 305 316 318 314 316 317 238 17 86 135 175 243 261 162 170 99 229 192 137 135 87 147 207 240 177 236 267 235 267 283 303 316 139
217 223 225 224 224 228 231 237 239 242 242 249 260 273 293 311 317 315 317 281 179 220 211 234 261 221 161 74 105 100 84 159 147 143 134 188 215 233 224 233 254 284 295 293 303 299 209
218 222 222 224 223 223 227 229 239 242 249 248 252 261 275 299 314 322 324 236 232 197 210 290 303 283 282 95 166 144 162 165 146 192 208 197 216 222 249 237 251 276 287 286 282 294 304
217 220 222 223 227 225 225 226 238 242 245 245 242 253 272 297 319 318 286 10 44 3 294 262 254 264 248 310 241 169 179 196 201 215 161 181 232 248 269 300 283 277 274 276 284 294 269
216 220 220 221 223 226 233 228 224 227 229 212 217 239 274 300 310 284 350 57 106 229 257 257 219 243 220 210 242 187 189 203 219 226 209 244 267 296 260 256 260 264 267 275 282 314 280
219 220 220 220 219 219 226 235 224 205 185 186 183 190 237 291 280 47 109 107 121 316 270 180 175 146 166 229 211 69 231 260 215 257 244 259 279 259 237 252 262 267 278 279 277 278 294
220 220 220 218 215 220 220 214 177 158 140 145 157 181 238 240 348 271 64 108 120 244 283 68 124 55 110 247 85 109 164 191 245 209 215 204 169 184 218 228 216 279 349 252 248 262 291
219 219 217 217 208 167 145 135 132 127 113 111 97 181 178 206 229 86 115 130 246 234 246 63 90 139 199 186 124 114 202 249 336 236 236 260 104 214 243 205 220 38 261 248 253 270 259
217 217 197 159 135 131 133 130 119 114 115 117 104 109 180 317 57 146 158 224 253 237 88 97 15 329 311 138 198 220 190 192 251 280 241 211 227 168 244 253 187 220 264 287 257 233 257
157 134 129 128 128 123 125 126 127 116 92 65 14 122 174 350 151 181 159 151 222 236 249 104 42 313 302 11 121 224 273 275 220 258 287 283 291 184 148 254 313 285 255 252 283 280 292
133 130 127 126 126 121 121 119 114 112 101 40 117 129 147 212 180 241 167 220 223 217 231 239 243 296 280 177 233 280 268 292 335 223 268 306 268 122 202 264 270 124 230 11 323 296 281
119 119 123 123 123 127 135 133 128 121 108 69 107 316 249 121 178 238 210 222 235 245 349 264 241 223 247 202 224 240 319 62 248 253 257 338 291 275 91 167 226 239 2 292 179 246 246
110 111 114 116 123 124 119 119 122 114 112 128 84 158 189 118 169 222 229 233 255 247 212 240 259 263 252 256 221 209 222 253 236 265 274 323 247 273 299 242 267 234 230 225 253 257 267
122 122 130 132 149 139 128 138 122 104 159 166 162 226 137 167 180 209 229 232 233 241 224 240 266 259 270 281 270 259 255 248 170 227 264 265 254 253 273 286 301 284 272 267 259 252 248
132 132 141 158 150 130 137 135 111 82 258 143 197 169 62 236 208 222 232 241 238 232 229 224 228 222 249 251 256 252 253 270 30 285 259 87 211 290 290 269 190 226 262 255 259 262 258
154 156 160 171 163 147 165 163 158 115 69 255 163 177 169 218 253 240 230 241 233 203 246 245 255 255 248 246 249 263 261 158 35 314 58 30 259 248 259 277 308 295 293 296 296 274 268
188 186 179 188 183 179 165 161 185 157 73 262 201 216 170 196 215 227 236 246 235 230 215 244 239 245 250 256 257 253 258 269 246 125 241 245 251 258 258 264 276 283 283 280 271 276 276
215 218 209 206 200 205 190 193 188 168 144 241 187 189 192 264 229 213 217 226 241 221 190 222 233 219 198 230 230 280 312 287 271 269 246 247 273 290 278 278 275 275 272 267 272 272 274
221 219 226 221 210 213 213 199 203 179 193 245 137 156 285 148 191 201 215 230 243 241 182 270 273 228 234 273 13 11 285 288 270 266 269 268 266 268 267 279 283 269 253 262 264 266 272
228 227 227 228 222 221 217 211 202 192 203 207 176 172 197 216 202 211 213 227 192 205 234 164 182 199 88 75 334 286 265 259 255 252 240 254 259 259 271 280 258 266 281 293 284 287 296
234 228 220 220 212 214 225 220 209 206 185 186 158 202 199 233 216 210 216 204 167 162 209 206 193 67 136 344 258 273 229 265 241 236 242 234 252 262 254 250 276 291 289 286 300 288 309
241 230 233 223 215 217 217 208 202 210 192 188 186 169 125 103 229 218 203 205 203 202 175 197 94 74 164 202 186 227 246 13 267 271 69 243 241 242 251 260 264 289 20 17 314 278 122
237 239 227 210 213 212 222 228 218 210 199 191 202 184 170 214 229 193 196 192 185 187 172 128 157 146 229 184 202 225 247 194 249 224 238 213 240 233 244 257 266 284 83 126 245 300 156
245 230 222 232 230 226 221 216 219 224 215 187 198 191 186 214 234 203 196 176 175 191 177 130 141 183 182 208 208 213 236 210 246 255 270 254 253 226 230 263 271 74 122 223 339 138 217
241 244 246 237 234 240 239 230 218 220 222 190 203 202 203 203 301 236 231 229 211 199 191 185 120 151 178 198 201 220 204 219 225 245 218 242 242 263 243 262 215 190 257 262 274 270 289